| time (UTC) | temp F | wind direction | speed MPH | gust MPH | rain 1hr in | rain 24hr in | rain mn in | humidity % | barometer mb |
| 20260507120851 | 69 | 188 | 6.0 | 16.0 | 0.00 | 1.06 | 0.00 | 55 | 1011.3 |
| 20260507120524 | 69 | 237 | 0.0 | 6.0 | 0.00 | 1.06 | 0.00 | 57 | 1011.3 |
| 20260507115950 | 68 | 148 | 0.0 | 7.0 | 0.00 | 1.06 | 0.00 | 56 | 1011.3 |
| 20260507115407 | 68 | 162 | 2.0 | 12.0 | 0.00 | 1.06 | 0.00 | 58 | 1011.4 |
| 20260507114336 | 68 | 224 | 3.0 | 10.0 | 0.00 | 1.06 | 0.00 | 59 | 1011.3 |
| 20260507114232 | 67 | 128 | 6.0 | 10.0 | 0.00 | 1.07 | 0.00 | 59 | 1011.4 |
| 20260507113934 | 67 | 133 | 1.0 | 11.0 | 0.00 | 1.06 | 0.00 | 61 | 1011.3 |
| 20260507113401 | 67 | 209 | 6.0 | 11.0 | 0.00 | 1.07 | 0.00 | 57 | 1011.4 |
| 20260507112522 | 67 | 92 | 2.0 | 11.0 | 0.00 | 1.07 | 0.00 | 63 | 1011.5 |
| 20260507112403 | 67 | 165 | 5.0 | 7.0 | 0.00 | 1.07 | 0.00 | 58 | 1011.5 |
| 20260507111332 | 67 | 124 | 4.0 | 11.0 | 0.00 | 1.07 | 0.00 | 62 | 1011.5 |
| 20260507111134 | 67 | 87 | 4.0 | 11.0 | 0.00 | 1.07 | 0.00 | 63 | 1011.5 |
| 20260507111111 | 67 | 127 | 5.0 | 11.0 | 0.00 | 1.08 | 0.00 | 65 | 1011.7 |
| 20260507110911 | 67 | 182 | 5.0 | 10.0 | 0.00 | 1.07 | 0.00 | 65 | 1011.6 |
| 20260507105334 | 67 | 137 | 2.0 | 10.0 | 0.00 | 1.08 | 0.00 | 63 | 1011.7 |
| 20260507104832 | 67 | 151 | 4.0 | 11.0 | 0.00 | 1.08 | 0.00 | 66 | 1011.8 |
| 20260507104331 | 67 | 162 | 6.0 | 12.0 | 0.00 | 1.08 | 0.00 | 65 | 1011.8 |
| 20260507103834 | 68 | 103 | 6.0 | 12.0 | 0.00 | 1.08 | 0.00 | 66 | 1011.9 |
| 20260507103334 | 68 | 268 | 4.0 | 10.0 | 0.00 | 1.08 | 0.00 | 64 | 1012.0 |
| 20260507102834 | 68 | 52 | 5.0 | 9.0 | 0.00 | 1.08 | 0.00 | 63 | 1011.9 |
| 20260507102649 | 67 | 166 | 4.0 | 11.0 | 0.00 | 1.09 | 0.00 | 65 | 1011.9 |
| 20260507102628 | 67 | 117 | 5.0 | 11.0 | 0.00 | 1.09 | 0.00 | 64 | 1012.0 |
| 20260507102422 | 67 | 76 | 3.0 | 9.0 | 0.00 | 1.08 | 0.00 | 66 | 1011.9 |
| 20260507100833 | 67 | 93 | 2.0 | 6.0 | 0.00 | 1.09 | 0.00 | 66 | 1012.0 |
| 20260507100335 | 66 | 176 | 2.0 | 7.0 | 0.00 | 1.09 | 0.00 | 67 | 1012.1 |
| 20260507095834 | 66 | 169 | 4.0 | 9.0 | 0.00 | 1.09 | 0.00 | 66 | 1012.1 |
| 20260507095546 | 65 | 1 | 1.0 | 10.0 | 0.00 | 1.10 | 0.00 | 69 | 1012.0 |
| 20260507095402 | 66 | 97 | 5.0 | 9.0 | 0.00 | 1.10 | 0.00 | 69 | 1012.0 |
| 20260507094333 | 65 | 83 | 7.0 | 13.0 | 0.00 | 1.10 | 0.00 | 69 | 1012.0 |
| 20260507093833 | 65 | 96 | 2.0 | 13.0 | 0.00 | 1.11 | 0.00 | 71 | 1012.0 |
| 20260507093334 | 64 | 89 | 5.0 | 9.0 | 0.00 | 1.12 | 0.00 | 72 | 1011.9 |
| 20260507092833 | 64 | 48 | 3.0 | 6.0 | 0.00 | 1.12 | 0.00 | 73 | 1011.8 |
| 20260507092333 | 64 | 87 | 3.0 | 6.0 | 0.00 | 1.12 | 0.00 | 73 | 1011.9 |
| 20260507091832 | 64 | 96 | 3.0 | 6.0 | 0.00 | 1.13 | 0.00 | 73 | 1011.8 |
| 20260507091332 | 64 | 44 | 3.0 | 6.0 | 0.00 | 1.13 | 0.00 | 73 | 1011.9 |
| 20260507090834 | 65 | 73 | 2.0 | 5.0 | 0.00 | 1.13 | 0.00 | 73 | 1011.9 |
| 20260507090328 | 65 | 52 | 2.0 | 7.0 | 0.00 | 1.13 | 0.00 | 73 | 1012.0 |
| 20260507090231 | 64 | 68 | 3.0 | 9.0 | 0.00 | 1.13 | 0.00 | 74 | 1012.0 |
| 20260507090201 | 64 | 44 | 4.0 | 9.0 | 0.00 | 1.13 | 0.00 | 74 | 1012.0 |
| 20260507085913 | 64 | 31 | 3.0 | 7.0 | 0.00 | 1.13 | 0.00 | 74 | 1012.0 |
| 20260507084324 | 64 | 82 | 5.0 | 9.0 | 0.00 | 1.13 | 0.00 | 74 | 1012.0 |
| 20260507083946 | 64 | 94 | 3.0 | 6.0 | 0.00 | 1.13 | 0.00 | 74 | 1012.0 |
| 20260507083842 | 64 | 107 | 4.0 | 6.0 | 0.00 | 1.13 | 0.00 | 74 | 1012.0 |
| 20260507082821 | 64 | 65 | 3.0 | 9.0 | 0.00 | 1.13 | 0.00 | 74 | 1011.9 |
| 20260507082321 | 63 | 10 | 4.0 | 9.0 | 0.00 | 1.13 | 0.00 | 74 | 1011.8 |
| 20260507081817 | 63 | 78 | 4.0 | 6.0 | 0.00 | 1.13 | 0.00 | 74 | 1011.9 |
| 20260507081532 | 63 | 30 | 6.0 | 9.0 | 0.00 | 1.13 | 0.00 | 74 | 1011.8 |
| 20260507081347 | 63 | 54 | 4.0 | 9.0 | 0.00 | 1.13 | 0.00 | 74 | 1011.9 |
| 20260507080309 | 63 | 52 | 2.0 | 6.0 | 0.00 | 1.13 | 0.00 | 74 | 1011.8 |
| 20260507075807 | 62 | 85 | 2.0 | 6.0 | 0.00 | 1.13 | 0.00 | 74 | 1011.8 |
| 20260507075309 | 62 | 3 | 2.0 | 7.0 | 0.00 | 1.13 | 0.00 | 72 | 1011.8 |
| 20260507074806 | 61 | 0 | 3.0 | 7.0 | 0.00 | 1.13 | 0.00 | 72 | 1011.8 |
| 20260507074306 | 61 | 69 | 3.0 | 6.0 | 0.00 | 1.13 | 0.00 | 72 | 1011.8 |
| 20260507073804 | 61 | 61 | 4.0 | 5.0 | 0.00 | 1.14 | 0.00 | 72 | 1011.8 |
| 20260507073300 | 60 | 7 | 2.0 | 7.0 | 0.00 | 1.14 | 0.00 | 72 | 1011.8 |
| 20260507072758 | 60 | 18 | 3.0 | 7.0 | 0.00 | 1.14 | 0.00 | 72 | 1011.8 |
| 20260507072257 | 60 | 0 | 5.0 | 4.0 | 0.00 | 1.14 | 0.00 | 71 | 1011.7 |
| 20260507071544 | 60 | 331 | 4.0 | 7.0 | 0.00 | 1.15 | 0.00 | 72 | 1011.6 |
| 20260507071359 | 60 | 0 | 4.0 | 7.0 | 0.00 | 1.14 | 0.00 | 72 | 1011.6 |
| 20260507070319 | 60 | 24 | 3.0 | 7.0 | 0.00 | 1.15 | 0.00 | 72 | 1011.6 |
| 20260507065821 | 60 | 49 | 4.0 | 6.0 | 0.00 | 1.17 | 0.00 | 72 | 1011.5 |
| 20260507065318 | 60 | 0 | 2.0 | 6.0 | 0.00 | 1.18 | 0.00 | 72 | 1011.6 |
| 20260507064959 | 59 | 20 | 3.0 | 7.0 | 0.00 | 1.21 | 0.00 | 71 | 1011.5 |
| 20260507064838 | 59 | 0 | 5.0 | 7.0 | 0.00 | 1.20 | 0.00 | 72 | 1011.6 |
| 20260507063820 | 58 | 49 | 3.0 | 7.0 | 0.00 | 1.24 | 0.00 | 71 | 1011.5 |
| 20260507063313 | 58 | 6 | 3.0 | 6.0 | 0.00 | 1.24 | 0.00 | 70 | 1011.5 |
| 20260507062811 | 58 | 28 | 2.0 | 5.0 | 0.00 | 1.27 | 0.00 | 70 | 1011.5 |
| 20260507062509 | 57 | 39 | 3.0 | 6.0 | 0.00 | 1.28 | 0.00 | 71 | 1011.4 |
| 20260507062334 | 57 | 27 | 3.0 | 6.0 | 0.00 | 1.28 | 0.00 | 71 | 1011.5 |
| 20260507061304 | 57 | 42 | 3.0 | 5.0 | 0.00 | 1.28 | 0.00 | 70 | 1011.4 |
| 20260507061144 | 57 | 35 | 2.0 | 4.0 | 0.00 | 1.28 | 0.00 | 70 | 1011.4 |
| 20260507061136 | 56 | 35 | 2.0 | 5.0 | 0.00 | 1.28 | 0.00 | 71 | 1011.3 |
| 20260507060855 | 57 | 37 | 3.0 | 4.0 | 0.00 | 1.28 | 0.00 | 70 | 1011.4 |
| 20260507055300 | 56 | 35 | 2.0 | 6.0 | 0.00 | 1.28 | 0.00 | 71 | 1011.2 |
| 20260507054757 | 56 | 44 | 5.0 | 6.0 | 0.00 | 1.28 | 0.00 | 70 | 1011.1 |
| 20260507054255 | 56 | 28 | 3.0 | 5.0 | 0.00 | 1.28 | 0.00 | 70 | 1011.1 |
| 20260507053752 | 56 | 30 | 2.0 | 4.0 | 0.00 | 1.28 | 0.00 | 70 | 1011.1 |
| 20260507053603 | 56 | 0 | 3.0 | 9.0 | 0.00 | 1.28 | 0.00 | 70 | 1011.0 |
| 20260507053515 | 56 | 51 | 4.0 | 9.0 | 0.00 | 1.28 | 0.00 | 69 | 1011.0 |
| 20260507053330 | 56 | 16 | 3.0 | 7.0 | 0.00 | 1.28 | 0.00 | 70 | 1011.1 |
| 20260507051742 | 56 | 37 | 4.0 | 6.0 | 0.00 | 1.28 | 0.00 | 69 | 1010.9 |
| 20260507051245 | 56 | 55 | 4.0 | 6.0 | 0.00 | 1.28 | 0.00 | 68 | 1010.8 |
| 20260507050749 | 56 | 35 | 2.0 | 5.0 | 0.00 | 1.28 | 0.00 | 68 | 1010.7 |
| 20260507050244 | 56 | 38 | 0.0 | 0.0 | 0.00 | 1.28 | 0.00 | 67 | 1010.7 |
| 20260507045743 | 56 | 16 | 0.0 | 0.0 | 0.00 | 1.28 | 0.00 | 67 | 1010.6 |
| 20260507045241 | 56 | 14 | 0.0 | 3.0 | 0.00 | 1.28 | 0.00 | 66 | 1010.7 |
| 20260507044741 | 55 | 25 | 0.0 | 3.0 | 0.00 | 1.28 | 0.00 | 66 | 1010.7 |
| 20260507044431 | 55 | 35 | 0.0 | 3.0 | 0.00 | 1.28 | 0.00 | 66 | 1010.6 |
| 20260507044300 | 55 | 30 | 0.0 | 3.0 | 0.00 | 1.28 | 0.00 | 66 | 1010.6 |
| 20260507043238 | 55 | 38 | 2.0 | 3.0 | 0.00 | 1.28 | 0.00 | 66 | 1010.5 |
| 20260507042735 | 55 | 39 | 0.0 | 3.0 | 0.00 | 1.28 | 0.00 | 66 | 1010.5 |
| 20260507042238 | 55 | 47 | 0.0 | 0.0 | 0.00 | 1.28 | 0.00 | 66 | 1010.4 |
| 20260507041737 | 55 | 38 | 0.0 | 0.0 | 0.00 | 1.28 | 0.00 | 66 | 1010.4 |
| 20260507041411 | 55 | 42 | 0.0 | 0.0 | 0.00 | 1.28 | 0.00 | 66 | 1010.4 |
| 20260507041300 | 55 | 35 | 0.0 | 0.0 | 0.00 | 1.28 | 0.00 | 66 | 1010.4 |
| 20260507040233 | 56 | 69 | 0.0 | 0.0 | 0.00 | 1.28 | 0.00 | 66 | 1010.4 |
| 20260507035902 | 56 | 56 | 0.0 | 0.0 | 0.00 | 1.28 | 0.00 | 66 | 1010.4 |
| 20260507035752 | 56 | 69 | 0.0 | 0.0 | 0.00 | 1.28 | 0.00 | 66 | 1010.4 |
| 20260507034732 | 56 | 1 | 0.0 | 0.0 | 0.00 | 1.28 | 0.00 | 66 | 1010.4 |
| 20260507034422 | 56 | 1 | 0.0 | 0.0 | 0.00 | 1.28 | 0.00 | 66 | 1010.3 |
| 20260507034256 | 56 | 1 | 0.0 | 0.0 | 0.00 | 1.28 | 0.00 | 66 | 1010.4 |
| 20260507033231 | 56 | 1 | 0.0 | 0.0 | 0.00 | 1.28 | 0.00 | 66 | 1010.3 |
| 20260507032728 | 56 | 25 | 0.0 | 0.0 | 0.00 | 1.28 | 0.00 | 66 | 1010.2 |
| 20260507032228 | 56 | 27 | 0.0 | 0.0 | 0.00 | 1.28 | 0.00 | 66 | 1010.2 |
| 20260507031727 | 56 | 27 | 0.0 | 0.0 | 0.00 | 1.28 | 0.00 | 66 | 1010.3 |
| 20260507031223 | 56 | 27 | 0.0 | 0.0 | 0.00 | 1.28 | 0.00 | 66 | 1010.2 |
| 20260507030726 | 56 | 27 | 0.0 | 0.0 | 0.00 | 1.28 | 0.00 | 66 | 1010.3 |
| 20260507030618 | 56 | 35 | 0.0 | 0.0 | 0.00 | 1.28 | 0.00 | 66 | 1010.2 |
| 20260507030507 | 57 | 35 | 0.0 | 0.0 | 0.00 | 1.28 | 0.00 | 66 | 1010.2 |
| 20260507030306 | 56 | 27 | 0.0 | 0.0 | 0.00 | 1.28 | 0.00 | 66 | 1010.3 |
| 20260507024724 | 57 | 35 | 0.0 | 0.0 | 0.00 | 1.28 | 0.00 | 66 | 1010.1 |
| 20260507024220 | 57 | 35 | 0.0 | 0.0 | 0.00 | 1.28 | 0.00 | 66 | 1010.2 |
| 20260507023721 | 57 | 35 | 0.0 | 0.0 | 0.00 | 1.28 | 0.00 | 66 | 1010.2 |
| 20260507023218 | 57 | 35 | 0.0 | 0.0 | 0.00 | 1.28 | 0.00 | 66 | 1010.2 |
| 20260507022715 | 57 | 35 | 0.0 | 0.0 | 0.00 | 1.28 | 0.00 | 66 | 1010.1 |
| 20260507022213 | 57 | 35 | 0.0 | 0.0 | 0.00 | 1.28 | 0.00 | 66 | 1010.2 |
| 20260507021713 | 57 | 35 | 0.0 | 0.0 | 0.00 | 1.28 | 0.00 | 66 | 1010.1 |
| 20260507021212 | 57 | 35 | 0.0 | 0.0 | 0.00 | 1.28 | 0.00 | 66 | 1010.1 |
| 20260507020710 | 57 | 35 | 0.0 | 0.0 | 0.00 | 1.28 | 0.00 | 66 | 1010.2 |
| 20260507020211 | 57 | 35 | 0.0 | 0.0 | 0.00 | 1.28 | 0.00 | 66 | 1010.2 |
| 20260507015711 | 57 | 35 | 0.0 | 0.0 | 0.00 | 1.28 | 0.00 | 66 | 1010.2 |
| 20260507015214 | 57 | 35 | 0.0 | 0.0 | 0.00 | 1.28 | 0.00 | 66 | 1010.1 |
| 20260507014710 | 57 | 35 | 0.0 | 0.0 | 0.00 | 1.28 | 0.00 | 66 | 1010.0 |
| 20260507014208 | 57 | 35 | 0.0 | 0.0 | 0.00 | 1.28 | 0.00 | 66 | 1010.2 |
| 20260507013706 | 57 | 35 | 0.0 | 0.0 | 0.00 | 1.28 | 0.00 | 66 | 1010.2 |
| 20260507013326 | 57 | 35 | 0.0 | 0.0 | 0.00 | 1.28 | 0.00 | 66 | 1010.2 |
| 20260507013226 | 57 | 35 | 0.0 | 0.0 | 0.00 | 1.28 | 0.00 | 66 | 1010.2 |
| 20260507012203 | 57 | 35 | 0.0 | 0.0 | 0.00 | 1.28 | 0.00 | 66 | 1010.3 |
| 20260507011659 | 57 | 35 | 0.0 | 0.0 | 0.00 | 1.28 | 0.00 | 66 | 1010.3 |
| 20260507011155 | 57 | 35 | 0.0 | 0.0 | 0.00 | 1.28 | 0.00 | 66 | 1010.3 |
| 20260507010654 | 57 | 35 | 0.0 | 0.0 | 0.00 | 1.28 | 0.00 | 66 | 1010.2 |
| 20260507010153 | 57 | 35 | 0.0 | 0.0 | 0.00 | 1.28 | 0.00 | 66 | 1010.2 |
| 20260507005655 | 57 | 35 | 0.0 | 0.0 | 0.00 | 1.28 | 0.00 | 66 | 1010.2 |
| 20260507005155 | 57 | 35 | 0.0 | 0.0 | 0.00 | 1.28 | 0.00 | 66 | 1010.3 |
| 20260507004655 | 57 | 35 | 0.0 | 0.0 | 0.00 | 1.28 | 0.00 | 66 | 1010.2 |
| 20260507004153 | 57 | 37 | 0.0 | 0.0 | 0.00 | 1.28 | 0.00 | 66 | 1010.2 |
| 20260507003654 | 57 | 37 | 0.0 | 0.0 | 0.00 | 1.28 | 0.00 | 66 | 1010.3 |
| 20260507003154 | 57 | 37 | 0.0 | 0.0 | 0.00 | 1.28 | 0.00 | 66 | 1010.3 |
| 20260507002653 | 57 | 35 | 0.0 | 0.0 | 0.00 | 1.28 | 0.00 | 66 | 1010.3 |
| 20260507002149 | 57 | 37 | 0.0 | 0.0 | 0.00 | 1.28 | 0.00 | 66 | 1010.3 |
| 20260507001900 | 57 | 37 | 0.0 | 0.0 | 0.00 | 1.28 | 0.00 | 66 | 1010.4 |
| 20260507001718 | 57 | 37 | 0.0 | 0.0 | 0.00 | 1.28 | 0.00 | 66 | 1010.4 |
| 20260507000856 | 57 | 37 | 0.0 | 0.0 | 0.00 | 1.34 | 0.00 | 66 | 1010.4 |
| 20260507000721 | 57 | 37 | 0.0 | 0.0 | 0.00 | 1.34 | 0.00 | 66 | 1010.4 |
| 20260506235641 | 57 | 37 | 0.0 | 0.0 | 0.00 | 1.34 | 0.00 | 65 | 1010.4 |
| 20260506235141 | 57 | 37 | 0.0 | 0.0 | 0.00 | 1.34 | 0.00 | 66 | 1010.4 |
| 20260506234839 | 57 | 38 | 0.0 | 0.0 | 0.00 | 1.34 | 0.00 | 66 | 1010.4 |
| 20260506234707 | 57 | 37 | 0.0 | 0.0 | 0.00 | 1.34 | 0.00 | 66 | 1010.3 |
| 20260506233641 | 57 | 38 | 0.0 | 0.0 | 0.00 | 1.34 | 0.00 | 66 | 1010.4 |
| 20260506233137 | 57 | 38 | 0.0 | 0.0 | 0.00 | 1.34 | 0.00 | 66 | 1010.4 |
| 20260506232635 | 57 | 38 | 0.0 | 0.0 | 0.00 | 1.34 | 0.00 | 66 | 1010.5 |
| 20260506232136 | 57 | 62 | 0.0 | 0.0 | 0.00 | 1.34 | 0.00 | 66 | 1010.5 |
| 20260506231631 | 57 | 62 | 0.0 | 0.0 | 0.00 | 1.34 | 0.00 | 66 | 1010.5 |
| 20260506231133 | 57 | 61 | 0.0 | 0.0 | 0.00 | 1.34 | 0.00 | 66 | 1010.5 |
| 20260506230628 | 57 | 61 | 0.0 | 0.0 | 0.00 | 1.34 | 0.00 | 66 | 1010.5 |
| 20260506230410 | 57 | 61 | 0.0 | 0.0 | 0.00 | 1.34 | 0.00 | 65 | 1010.6 |
| 20260506230209 | 57 | 61 | 0.0 | 0.0 | 0.00 | 1.34 | 0.00 | 65 | 1010.5 |
| 20260506225128 | 57 | 61 | 0.0 | 0.0 | 0.00 | 1.34 | 0.00 | 65 | 1010.6 |
| 20260506224551 | 57 | 61 | 0.0 | 0.0 | 0.00 | 1.34 | 0.00 | 65 | 1010.6 |
| 20260506224159 | 57 | 61 | 0.0 | 0.0 | 0.00 | 1.34 | 0.00 | 65 | 1010.5 |
| 20260506223141 | 57 | 61 | 0.0 | 0.0 | 0.00 | 1.34 | 0.00 | 65 | 1010.5 |
| 20260506222636 | 57 | 62 | 0.0 | 0.0 | 0.00 | 1.34 | 0.00 | 65 | 1010.5 |
| 20260506222137 | 57 | 62 | 0.0 | 0.0 | 0.00 | 1.34 | 0.00 | 65 | 1010.4 |
| 20260506221636 | 57 | 62 | 0.0 | 0.0 | 0.00 | 1.34 | 0.00 | 65 | 1010.3 |
| 20260506221138 | 57 | 62 | 0.0 | 0.0 | 0.00 | 1.34 | 0.00 | 65 | 1010.3 |
| 20260506220636 | 57 | 62 | 0.0 | 0.0 | 0.00 | 1.34 | 0.00 | 65 | 1010.4 |
| 20260506220139 | 57 | 62 | 0.0 | 0.0 | 0.00 | 1.34 | 0.00 | 65 | 1010.4 |
| 20260506215630 | 57 | 62 | 0.0 | 0.0 | 0.00 | 1.34 | 1.34 | 65 | 1010.4 |
| 20260506215128 | 57 | 62 | 0.0 | 0.0 | 0.00 | 1.34 | 1.34 | 65 | 1010.4 |
| 20260506214628 | 57 | 63 | 0.0 | 0.0 | 0.00 | 1.34 | 1.34 | 65 | 1010.4 |
| 20260506214126 | 57 | 102 | 0.0 | 2.0 | 0.00 | 1.34 | 1.34 | 65 | 1010.5 |
| 20260506213625 | 57 | 248 | 0.0 | 4.0 | 0.00 | 1.34 | 1.34 | 65 | 1010.5 |
| 20260506213325 | 58 | 217 | 0.0 | 5.0 | 0.00 | 1.34 | 1.34 | 65 | 1010.4 |
| 20260506213157 | 57 | 243 | 1.0 | 4.0 | 0.00 | 1.34 | 1.34 | 65 | 1010.3 |
| 20260506212125 | 58 | 72 | 3.0 | 7.0 | 0.00 | 1.34 | 1.34 | 65 | 1010.4 |
| 20260506211622 | 58 | 87 | 4.0 | 7.0 | 0.00 | 1.35 | 1.34 | 65 | 1010.4 |
| 20260506211124 | 58 | 89 | 3.0 | 7.0 | 0.00 | 1.35 | 1.34 | 65 | 1010.5 |
| 20260506210623 | 58 | 56 | 4.0 | 9.0 | 0.00 | 1.35 | 1.34 | 65 | 1010.4 |
| 20260506210124 | 58 | 61 | 3.0 | 9.0 | 0.00 | 1.35 | 1.34 | 65 | 1010.4 |
| 20260506205622 | 58 | 86 | 3.0 | 7.0 | 0.01 | 1.35 | 1.34 | 65 | 1010.3 |
| 20260506205119 | 58 | 75 | 5.0 | 7.0 | 0.02 | 1.35 | 1.34 | 65 | 1010.3 |
| 20260506204619 | 58 | 93 | 0.0 | 6.0 | 0.02 | 1.35 | 1.34 | 65 | 1010.4 |
| 20260506204303 | 57 | 16 | 0.0 | 0.0 | 0.08 | 1.38 | 1.34 | 65 | 1010.4 |
| 20260506204144 | 57 | 17 | 0.0 | 0.0 | 0.05 | 1.36 | 1.34 | 65 | 1010.4 |
| 20260506203116 | 58 | 16 | 0.0 | 0.0 | 0.12 | 1.39 | 1.34 | 65 | 1010.4 |
| 20260506202616 | 58 | 144 | 0.0 | 0.0 | 0.14 | 1.39 | 1.34 | 65 | 1010.4 |
| 20260506202116 | 58 | 144 | 0.0 | 0.0 | 0.17 | 1.39 | 1.34 | 65 | 1010.3 |
| 20260506201615 | 57 | 142 | 0.0 | 0.0 | 0.20 | 1.42 | 1.34 | 65 | 1010.3 |
| 20260506201112 | 57 | 241 | 0.0 | 1.0 | 0.20 | 1.44 | 1.34 | 65 | 1010.3 |
| 20260506200611 | 57 | 241 | 0.0 | 1.0 | 0.22 | 1.46 | 1.34 | 65 | 1010.2 |
| 20260506200109 | 57 | 241 | 0.0 | 3.0 | 0.23 | 1.46 | 1.34 | 65 | 1010.2 |
| 20260506195608 | 57 | 241 | 1.0 | 3.0 | 0.22 | 1.24 | 1.33 | 65 | 1010.1 |
| 20260506195109 | 57 | 241 | 0.0 | 1.0 | 0.21 | 1.24 | 1.31 | 65 | 1010.0 |
| 20260506194605 | 57 | 238 | 0.0 | 7.0 | 0.20 | 1.25 | 1.31 | 65 | 1009.9 |
| 20260506194105 | 57 | 227 | 1.0 | 7.0 | 0.18 | 1.25 | 1.28 | 65 | 1009.9 |
| 20260506193606 | 57 | 275 | 5.0 | 9.0 | 0.15 | 1.27 | 1.25 | 65 | 1009.7 |
| 20260506193107 | 57 | 245 | 7.0 | 9.0 | 0.11 | 1.27 | 1.21 | 65 | 1009.9 |
| 20260506192605 | 57 | 289 | 0.0 | 0.0 | 0.09 | 1.28 | 1.19 | 65 | 1009.8 |
| 20260506192109 | 58 | 292 | 0.0 | 0.0 | 0.06 | 1.28 | 1.16 | 65 | 1009.9 |
| 20260506191603 | 58 | 344 | 0.0 | 0.0 | 0.03 | 1.29 | 1.13 | 65 | 1009.7 |
| 20260506191104 | 58 | 278 | 0.0 | 0.0 | 0.02 | 1.29 | 1.13 | 65 | 1009.6 |
| 20260506190604 | 59 | 269 | 0.0 | 0.0 | 0.01 | 1.29 | 1.11 | 65 | 1009.5 |
| 20260506190329 | 59 | 243 | 0.0 | 0.0 | 0.00 | 1.30 | 1.11 | 65 | 1009.3 |
| 20260506190136 | 59 | 243 | 0.0 | 0.0 | 0.00 | 1.30 | 1.11 | 65 | 1009.4 |
| 20260506185100 | 59 | 244 | 0.0 | 6.0 | 0.00 | 1.31 | 1.11 | 65 | 1009.4 |
| 20260506184558 | 59 | 243 | 2.0 | 7.0 | 0.00 | 1.31 | 1.11 | 65 | 1009.4 |
| 20260506184254 | 59 | 169 | 0.0 | 12.0 | 0.00 | 1.32 | 1.11 | 65 | 1009.4 |
| 20260506184122 | 59 | 234 | 5.0 | 9.0 | 0.00 | 1.32 | 1.11 | 65 | 1009.4 |
| 20260506183057 | 59 | 226 | 5.0 | 12.0 | 0.00 | 1.32 | 1.11 | 65 | 1009.3 |
| 20260506182557 | 59 | 199 | 2.0 | 6.0 | 0.00 | 1.32 | 1.11 | 65 | 1009.3 |
| 20260506182055 | 58 | 231 | 0.0 | 4.0 | 0.00 | 1.32 | 1.11 | 65 | 1009.4 |
| 20260506181554 | 58 | 233 | 3.0 | 5.0 | 0.00 | 1.33 | 1.11 | 65 | 1009.4 |
| 20260506181054 | 58 | 223 | 3.0 | 5.0 | 0.00 | 1.33 | 1.11 | 65 | 1009.4 |
| 20260506180551 | 58 | 206 | 2.0 | 6.0 | 0.01 | 1.33 | 1.11 | 65 | 1009.4 |
| 20260506180048 | 58 | 165 | 4.0 | 6.0 | 0.01 | 1.34 | 1.11 | 65 | 1009.4 |
| 20260506175550 | 58 | 189 | 3.0 | 6.0 | 0.01 | 1.33 | 1.11 | 65 | 1009.4 |
| 20260506175049 | 57 | 118 | 0.0 | 3.0 | 0.01 | 1.34 | 1.11 | 65 | 1009.3 |
| 20260506174551 | 57 | 243 | 0.0 | 0.0 | 0.01 | 1.35 | 1.11 | 65 | 1009.4 |
| 20260506174048 | 57 | 243 | 0.0 | 3.0 | 0.01 | 1.35 | 1.11 | 65 | 1009.3 |
| 20260506173548 | 57 | 243 | 0.0 | 3.0 | 0.02 | 1.35 | 1.11 | 65 | 1009.3 |
| 20260506173048 | 57 | 243 | 1.0 | 3.0 | 0.06 | 1.35 | 1.11 | 65 | 1009.1 |
| 20260506172827 | 57 | 243 | 2.0 | 4.0 | 0.07 | 1.36 | 1.11 | 66 | 1009.1 |
| 20260506172624 | 57 | 243 | 1.0 | 4.0 | 0.06 | 1.35 | 1.11 | 66 | 1009.2 |
| 20260506171542 | 56 | 244 | 3.0 | 4.0 | 0.12 | 1.36 | 1.11 | 66 | 1009.1 |
| 20260506171037 | 56 | 244 | 2.0 | 3.0 | 0.28 | 1.37 | 1.11 | 66 | 1009.1 |
| 20260506170534 | 56 | 244 | 1.0 | 2.0 | 0.29 | 1.37 | 1.10 | 66 | 1008.9 |
| 20260506170040 | 56 | 244 | 2.0 | 5.0 | 0.30 | 1.38 | 1.10 | 66 | 1008.9 |
| 20260506165925 | 56 | 276 | 2.0 | 10.0 | 0.31 | 1.07 | 1.10 | 66 | 1008.8 |
| 20260506165913 | 56 | 241 | 5.0 | 11.0 | 0.33 | 1.07 | 1.10 | 66 | 1009.0 |
| 20260506165637 | 56 | 245 | 1.0 | 6.0 | 0.31 | 1.07 | 1.10 | 66 | 1009.0 |
| 20260506164029 | 57 | 252 | 5.0 | 13.0 | 0.34 | 1.07 | 1.10 | 66 | 1008.9 |
| 20260506163531 | 57 | 255 | 9.0 | 13.0 | 0.37 | 1.08 | 1.09 | 66 | 1009.0 |
| 20260506163032 | 56 | 221 | 6.0 | 17.0 | 0.36 | 1.08 | 1.05 | 67 | 1008.9 |
| 20260506162525 | 57 | 220 | 5.0 | 17.0 | 0.37 | 1.08 | 1.05 | 67 | 1009.0 |
| 20260506162201 | 59 | 278 | 6.0 | 7.0 | 0.31 | 1.08 | 0.95 | 66 | 1008.9 |
| 20260506162051 | 57 | 319 | 2.0 | 7.0 | 0.37 | 1.08 | 1.04 | 68 | 1008.8 |
| 20260506161023 | 59 | 180 | 4.0 | 10.0 | 0.17 | 1.08 | 0.83 | 65 | 1009.0 |
| 20260506160521 | 59 | 168 | 4.0 | 10.0 | 0.15 | 1.08 | 0.81 | 66 | 1008.8 |
| 20260506160022 | 59 | 230 | 4.0 | 7.0 | 0.13 | 1.08 | 0.80 | 66 | 1008.9 |
| 20260506155521 | 59 | 175 | 4.0 | 7.0 | 0.13 | 0.94 | 0.80 | 66 | 1008.8 |
| 20260506155025 | 59 | 147 | 3.0 | 5.0 | 0.13 | 0.94 | 0.79 | 66 | 1009.0 |
| 20260506154706 | 59 | 254 | 1.0 | 10.0 | 0.10 | 0.94 | 0.76 | 66 | 1008.8 |
| 20260506154540 | 59 | 254 | 1.0 | 10.0 | 0.11 | 0.94 | 0.77 | 66 | 1008.9 |
| 20260506153519 | 60 | 76 | 4.0 | 10.0 | 0.06 | 0.94 | 0.71 | 66 | 1008.9 |
| 20260506153020 | 60 | 125 | 4.0 | 10.0 | 0.02 | 0.94 | 0.69 | 66 | 1009.0 |
| 20260506152520 | 60 | 93 | 2.0 | 10.0 | 0.02 | 0.94 | 0.68 | 66 | 1008.9 |
| 20260506152021 | 60 | 38 | 6.0 | 11.0 | 0.01 | 0.94 | 0.67 | 66 | 1008.9 |
| 20260506151519 | 60 | 152 | 3.0 | 11.0 | 0.00 | 0.95 | 0.67 | 66 | 1009.1 |
| 20260506151015 | 60 | 100 | 6.0 | 10.0 | 0.00 | 0.95 | 0.66 | 66 | 1009.0 |
| 20260506150643 | 60 | 59 | 5.0 | 10.0 | 0.00 | 0.95 | 0.66 | 66 | 1009.0 |
| 20260506150536 | 60 | 80 | 4.0 | 10.0 | 0.00 | 0.95 | 0.66 | 66 | 1009.0 |
| 20260506145509 | 60 | 149 | 1.0 | 4.0 | 0.00 | 0.96 | 0.66 | 66 | 1009.1 |
| 20260506145011 | 59 | 152 | 0.0 | 6.0 | 0.01 | 0.98 | 0.66 | 65 | 1009.2 |
| 20260506144721 | 59 | 71 | 2.0 | 6.0 | 0.02 | 1.02 | 0.66 | 66 | 1009.3 |
| 20260506144539 | 59 | 152 | 2.0 | 6.0 | 0.02 | 0.99 | 0.66 | 66 | 1009.2 |
| 20260506143507 | 59 | 319 | 1.0 | 6.0 | 0.02 | 1.04 | 0.66 | 66 | 1009.4 |
| 20260506143008 | 59 | 220 | 1.0 | 9.0 | 0.02 | 1.04 | 0.66 | 66 | 1009.5 |
| 20260506142714 | 59 | 110 | 4.0 | 10.0 | 0.05 | 1.05 | 0.66 | 65 | 1009.4 |
| 20260506142544 | 59 | 107 | 4.0 | 9.0 | 0.04 | 1.04 | 0.66 | 66 | 1009.5 |
| 20260506141428 | 59 | 212 | 6.0 | 11.0 | 0.24 | 1.05 | 0.66 | 65 | 1009.5 |
| 20260506140551 | 59 | 193 | 6.0 | 9.0 | 0.31 | 1.05 | 0.66 | 66 | 1009.6 |
| 20260506140250 | 58 | 214 | 2.0 | 6.0 | 0.37 | 0.71 | 0.65 | 66 | 1009.6 |
| 20260506140116 | 59 | 224 | 3.0 | 6.0 | 0.34 | 1.06 | 0.66 | 66 | 1009.6 |
| 20260506135049 | 58 | 186 | 2.0 | 9.0 | 0.37 | 0.71 | 0.65 | 66 | 1009.7 |
| 20260506134551 | 58 | 190 | 3.0 | 9.0 | 0.36 | 0.72 | 0.65 | 66 | 1009.7 |
| 20260506134047 | 58 | 130 | 3.0 | 10.0 | 0.36 | 0.72 | 0.65 | 66 | 1009.8 |
| 20260506133545 | 58 | 179 | 5.0 | 13.0 | 0.36 | 0.72 | 0.65 | 67 | 1009.8 |
| 20260506133049 | 58 | 206 | 2.0 | 13.0 | 0.35 | 0.72 | 0.64 | 67 | 1009.7 |
| 20260506132545 | 58 | 180 | 5.0 | 18.0 | 0.34 | 0.73 | 0.62 | 67 | 1009.8 |
| 20260506132045 | 58 | 216 | 6.0 | 20.0 | 0.33 | 0.74 | 0.61 | 68 | 1009.8 |
| 20260506131548 | 58 | 178 | 13.0 | 20.0 | 0.31 | 0.74 | 0.56 | 69 | 1009.9 |
| 20260506131258 | 59 | 152 | 7.0 | 10.0 | 0.07 | 0.76 | 0.35 | 69 | 1010.0 |
| 20260506131117 | 59 | 157 | 5.0 | 12.0 | 0.13 | 0.75 | 0.41 | 68 | 1009.9 |
| 20260506130043 | 60 | 165 | 5.0 | 11.0 | 0.05 | 0.76 | 0.31 | 69 | 1009.9 |
| 20260506125541 | 60 | 207 | 6.0 | 11.0 | 0.02 | 0.72 | 0.29 | 68 | 1009.8 |
| 20260506125037 | 60 | 214 | 5.0 | 11.0 | 0.01 | 0.73 | 0.28 | 68 | 1009.8 |
| 20260506124539 | 60 | 214 | 7.0 | 11.0 | 0.01 | 0.74 | 0.28 | 68 | 1009.8 |
| 20260506124040 | 60 | 188 | 7.0 | 14.0 | 0.01 | 0.74 | 0.28 | 68 | 1009.8 |
| 20260506123539 | 60 | 190 | 6.0 | 14.0 | 0.02 | 0.74 | 0.28 | 68 | 1009.7 |
| 20260506123036 | 60 | 252 | 6.0 | 12.0 | 0.02 | 0.74 | 0.28 | 68 | 1009.8 |
| 20260506122534 | 60 | 176 | 6.0 | 10.0 | 0.02 | 0.74 | 0.28 | 68 | 1009.8 |
| 20260506122035 | 60 | 186 | 3.0 | 12.0 | 0.02 | 0.74 | 0.28 | 67 | 1009.7 |
| 20260506121535 | 60 | 85 | 5.0 | 12.0 | 0.02 | 0.74 | 0.28 | 67 | 1009.7 |